Waarnemingen

Advertentie
Mijn weer
Isle Of Man/Ronaldsway, Groot Brittannië (3204): temperatuur & dauwpunt: 16.07.2018 13:00:00 - 22.07.2018 13:00:00 (BST)Isle Of Man/Ronaldsway, Groot Brittannië (3204): temperatuur -20cm & temperatuur -100cm: 16.07.2018 13:00:00 - 22.07.2018 13:00:00 (BST)Isle Of Man/Ronaldsway, Groot Brittannië (3204): windsnelheid: 16.07.2018 13:00:00 - 22.07.2018 13:00:00 (BST)Isle Of Man/Ronaldsway, Groot Brittannië (3204): windrichting: 16.07.2018 13:00:00 - 22.07.2018 13:00:00 (BST)Isle Of Man/Ronaldsway, Groot Brittannië (3204): luchtdruk: 16.07.2018 13:00:00 - 22.07.2018 13:00:00 (BST)Isle Of Man/Ronaldsway, Groot Brittannië (3204): zicht: 16.07.2018 13:00:00 - 22.07.2018 13:00:00 (BST)Isle Of Man/Ronaldsway, Groot Brittannië (3204): Zonneschijnduur: 16.07.2018 13:00:00 - 22.07.2018 13:00:00 (BST)Isle Of Man/Ronaldsway, Groot Brittannië (3204): neerslag: 16.07.2018 13:00:00 - 22.07.2018 13:00:00 (BST)
Datum & Tijd tt [°C] td [°C] tt -20cm [°C] tt -100cm [°C] ff [km/u] ff [kn] dd ppp [hPa] vv [km] sd [min] rr [mm]
22.07.2018 13:00:00 18,4 15,8 - - 15 8 ZW 1016,3 7 0 0,0
22.07.2018 12:00:00 17,8 15,7 - - 13 7 WZW 1016,1 10 0 0,0
22.07.2018 11:00:00 17,7 15,5 - - 13 7 ZW 1015,9 10 0 0,0
22.07.2018 10:00:00 17,3 15,0 18,2 17,0 13 7 ZW 1015,8 10 0 0,0
22.07.2018 09:00:00 16,6 15,3 - - 8 4 ZZW 1015,8 10 0 0,0
22.07.2018 08:00:00 15,6 15,1 - - 11 6 Z 1015,6 5 0 0,0
22.07.2018 07:00:00 16,0 15,5 - - 8 4 W 1015,4 10 0 0,0
22.07.2018 06:00:00 15,8 15,4 - - 9 5 W 1015,1 2,5 0 0,0
22.07.2018 05:00:00 15,5 15,0 - - 9 5 W 1014,9 2,5 0 0,0
22.07.2018 04:00:00 15,2 14,1 - - 9 5 W 1014,9 10 0 0,0
22.07.2018 03:00:00 15,0 13,7 - - 11 6 WZW 1015,3 10 0 0,0
22.07.2018 02:00:00 15,3 13,5 - - 11 6 W 1015,4 10 0 0,0
22.07.2018 01:00:00 14,9 13,1 - - 8 4 WZW 1015,7 10 - 0,0
22.07.2018 00:00:00 14,9 13,1 - - 11 6 WZW 1015,7 10 0 0,0
21.07.2018 23:00:00 14,7 13,5 - - 11 6 WZW 1016,0 10 0 0,0
21.07.2018 22:00:00 14,9 13,4 - - 11 6 W 1016,1 10 0 0,0
21.07.2018 21:00:00 15,1 13,1 - - 13 7 WZW 1015,7 10 0 0,0
21.07.2018 20:00:00 15,8 12,7 - - 15 8 ZW 1015,4 10 0 0,0
21.07.2018 19:00:00 16,5 12,2 - - 13 7 ZZW 1015,4 10 0 0,0
21.07.2018 18:00:00 16,2 12,4 - - 15 8 ZZW 1015,6 10 0 0,0
21.07.2018 17:00:00 16,3 12,0 - - 16 9 ZW 1015,7 10 0 0,0
21.07.2018 16:00:00 16,6 11,1 - - 16 9 W 1015,8 10 18 0,0
21.07.2018 15:00:00 16,8 11,0 - - 16 9 WZW 1015,9 10 0 0,0
21.07.2018 14:00:00 17,0 11,0 - - 18 10 NW 1015,8 10 0 0,0
21.07.2018 13:00:00 16,3 10,7 - - 15 8 NW 1015,9 10 0 0,0
21.07.2018 12:00:00 15,6 10,5 - - 18 10 NW 1015,7 10 12 0,0
21.07.2018 11:00:00 16,6 11,1 - - 13 7 NW 1015,1 10 30 0,0
21.07.2018 10:00:00 15,0 11,5 18,0 17,2 13 7 NW 1015,0 10 6 0,0
21.07.2018 09:00:00 14,6 11,7 - - 13 7 NW 1015,1 - 0 0,0
21.07.2018 08:00:00 14,0 11,6 - - 18 10 N 1014,8 10 0 0,0
21.07.2018 07:00:00 13,5 11,6 - - 16 9 NNW 1014,4 10 0 0,0
21.07.2018 06:00:00 13,1 11,6 - - 16 9 N 1014,1 10 0 0,0
21.07.2018 05:00:00 12,9 11,4 - - 15 8 NNW 1013,9 10 0 0,0
21.07.2018 04:00:00 13,3 11,3 - - 18 10 N 1013,6 10 0 0,0
21.07.2018 03:00:00 13,6 11,7 - - 16 9 N 1013,8 10 0 0,0
21.07.2018 02:00:00 13,8 12,2 - - 21 11 N 1013,6 10 0 0,0
21.07.2018 01:00:00 14,2 12,7 - - 5 3 - 1013,4 10 - 0,0
21.07.2018 00:00:00 14,6 12,9 - - 11 6 N 1013,2 10 0 0,0
20.07.2018 23:00:00 14,9 13,4 - - 11 6 N 1013,2 10 0 0,0
20.07.2018 22:00:00 14,4 14,1 - - 5 3 W 1013,0 5 0 0,0
20.07.2018 21:00:00 14,2 13,9 - - 0 0 N 1012,9 3,5 0 1,2
20.07.2018 20:00:00 14,3 14,0 - - 5 3 - 1012,6 5 0 4,0
20.07.2018 19:00:00 14,2 13,9 - - 8 4 WZW 1012,7 2,0 0 0,4
20.07.2018 18:00:00 14,3 13,9 - - 15 8 ZW 1012,5 3,0 0 0,0
20.07.2018 17:00:00 14,5 14,0 - - 21 11 ZZW 1012,6 10 0 0,0
20.07.2018 16:00:00 14,1 13,8 - - 24 13 ZZW 1012,9 5 0 0,4
20.07.2018 15:00:00 13,9 13,5 - - 26 14 ZZW 1013,2 8 0 1,4
20.07.2018 14:00:00 13,6 13,3 - - 26 14 ZZW 1013,4 5 0 1,2
20.07.2018 13:00:00 13,7 13,3 - - 24 13 ZW 1013,7 3,0 0 0,0
20.07.2018 12:00:00 13,5 13,2 - - 22 12 ZZW 1013,8 8 0 0,2
20.07.2018 11:00:00 13,4 13,0 - - 21 11 ZZW 1014,0 3,0 0 0,4
20.07.2018 10:00:00 13,9 13,5 18,7 17,2 18 10 ZZW 1014,3 2,5 0 0,2
20.07.2018 09:00:00 13,9 13,1 - - 13 7 ZW 1014,5 5 0 0,6
20.07.2018 08:00:00 14,0 12,1 - - 15 8 ZW 1014,5 10 0 0,0
20.07.2018 07:00:00 14,0 12,2 - - 18 10 W 1014,7 10 0 0,0
20.07.2018 06:00:00 14,2 11,9 - - 5 3 - 1014,9 10 0 0,0
20.07.2018 05:00:00 13,5 10,6 - - 2 1 N 1015,1 40 0 0,0
20.07.2018 04:00:00 13,1 9,8 - - 2 1 NO 1015,6 10 0 0,0
20.07.2018 03:00:00 13,2 8,6 - - 2 1 N 1016,2 10 0 0,0
20.07.2018 02:00:00 12,6 7,9 - - 5 3 N 1016,5 40 0 0,0
20.07.2018 01:00:00 11,7 7,5 - - 8 4 N 1017,0 10 - 0,0
20.07.2018 00:00:00 12,2 6,9 - - 5 3 N 1017,3 10 0 0,0
19.07.2018 23:00:00 14,0 6,9 - - 4 2 - 1017,6 10 0 0,0
19.07.2018 22:00:00 15,3 7,7 - - 4 2 - 1017,8 10 0 0,0
19.07.2018 21:00:00 16,6 8,0 - - 5 3 ZW 1017,9 10 42 0,0
19.07.2018 20:00:00 17,4 7,2 - - 9 5 ZW 1018,1 10 60 0,0
19.07.2018 19:00:00 17,3 9,4 - - 9 5 ZW 1018,3 10 60 0,0
19.07.2018 18:00:00 16,9 9,1 - - 15 8 ZZW 1018,6 10 60 0,0
19.07.2018 17:00:00 18,9 7,5 - - 15 8 ZZW 1018,9 10 60 0,0
19.07.2018 16:00:00 19,9 7,6 - - 16 9 ZW 1019,3 10 60 0,0
19.07.2018 15:00:00 20,9 3,4 - - 16 9 ZW 1019,4 10 60 0,0
19.07.2018 14:00:00 20,5 4,1 - - 11 6 W 1019,3 10 60 0,0
19.07.2018 13:00:00 20,7 3,5 - - 13 7 W 1019,4 10 60 0,0
19.07.2018 12:00:00 20,0 4,8 - - 15 8 WNW 1019,7 10 60 0,0
19.07.2018 11:00:00 18,8 8,5 - - 11 6 N 1019,6 10 54 0,0
19.07.2018 10:00:00 19,1 11,1 18,7 17,2 9 5 OZO 1019,5 10 60 0,0
19.07.2018 09:00:00 16,8 13,0 - - 5 3 ZO 1019,5 10 60 0,0
19.07.2018 08:00:00 14,7 13,3 - - 8 4 ZO 1019,6 10 30 0,0
19.07.2018 07:00:00 13,8 12,7 - - 4 2 - 1019,6 8 0 0,0
19.07.2018 06:00:00 12,9 11,3 - - 4 2 - 1019,4 8 0 0,0
19.07.2018 05:00:00 10,9 9,1 - - 5 3 - 1019,4 10 0 0,0
19.07.2018 04:00:00 11,3 9,2 - - 5 3 - 1019,4 10 0 0,0
19.07.2018 03:00:00 11,2 9,0 - - 5 3 N 1019,4 10 0 0,0
19.07.2018 02:00:00 12,6 10,4 - - 4 2 N 1019,4 10 0 0,0
19.07.2018 01:00:00 13,9 11,8 - - 8 4 WNW 1019,5 10 - 0,0
19.07.2018 00:00:00 13,7 11,8 - - 5 3 - 1019,4 10 0 0,0
18.07.2018 23:00:00 13,8 13,2 - - 8 4 W 1019,2 8 0 0,0
18.07.2018 22:00:00 14,7 13,6 - - 8 4 WZW 1019,1 10 0 0,0
18.07.2018 21:00:00 16,1 12,9 - - 9 5 ZW 1018,7 10 60 0,0
18.07.2018 20:00:00 17,6 12,7 - - 11 6 ZW 1018,3 10 60 0,0
18.07.2018 19:00:00 19,2 11,3 - - 13 7 ZW 1018,3 10 42 0,0
18.07.2018 18:00:00 18,4 13,1 - - 15 8 ZZW 1018,1 10 30 0,0
18.07.2018 17:00:00 17,8 13,0 - - 11 6 WZW 1018,1 10 6 0,0
18.07.2018 16:00:00 15,9 13,2 - - 18 10 ZZW 1018,2 10 12 0,0
18.07.2018 15:00:00 16,8 13,0 - - 15 8 ZZW 1017,8 10 42 0,0
18.07.2018 14:00:00 17,1 13,4 - - 13 7 ZZW 1017,6 10 18 0,0
18.07.2018 13:00:00 17,1 13,2 - - 11 6 ZZW 1017,4 10 42 0,0
18.07.2018 12:00:00 16,4 13,6 - - 9 5 Z 1017,2 10 6 0,0
18.07.2018 11:00:00 16,2 13,6 - - 11 6 Z 1017,0 10 0 0,0
18.07.2018 10:00:00 15,7 13,6 18,7 17,2 13 7 ZZO 1017,0 10 0 0,0
18.07.2018 09:00:00 15,6 13,6 - - 11 6 ZO 1016,8 10 0 0,0
18.07.2018 08:00:00 15,0 13,3 - - 13 7 ZZO 1016,5 10 0 0,0
18.07.2018 07:00:00 14,4 13,2 - - 8 4 ZZO 1016,1 10 0 0,0
18.07.2018 06:00:00 14,2 13,1 - - 8 4 ZO 1015,7 10 0 0,0
18.07.2018 05:00:00 13,9 12,9 - - 5 3 O 1015,7 10 0 0,0
18.07.2018 04:00:00 13,7 12,6 - - 5 3 - 1015,5 10 0 0,0
18.07.2018 03:00:00 13,9 12,6 - - 4 2 - 1015,5 10 0 0,0
18.07.2018 02:00:00 14,0 12,5 - - 4 2 - 1015,6 10 0 0,0
18.07.2018 01:00:00 14,1 12,3 - - 5 3 - 1015,7 10 - 0,0
18.07.2018 00:00:00 14,2 12,0 - - 5 3 - 1015,8 10 0 0,0
17.07.2018 23:00:00 13,8 12,0 - - 2 1 - 1015,6 10 0 0,0
17.07.2018 22:00:00 14,1 11,6 - - 8 4 W 1015,6 10 0 0,0
17.07.2018 21:00:00 14,6 11,7 - - 5 3 - 1015,4 10 6 0,0
17.07.2018 20:00:00 14,7 11,4 - - 11 6 ZW 1015,2 10 18 0,0
17.07.2018 19:00:00 15,3 11,0 - - 15 8 ZZW 1015,0 10 0 0,0
17.07.2018 18:00:00 16,0 10,5 - - 18 10 ZZW 1015,2 10 30 0,0
17.07.2018 17:00:00 16,3 11,0 - - 18 10 ZZW 1015,0 10 60 0,0
17.07.2018 16:00:00 17,0 11,1 - - 18 10 ZZW 1015,1 10 60 0,0
17.07.2018 15:00:00 16,5 10,5 - - 18 10 ZZW 1015,0 10 60 0,0
17.07.2018 14:00:00 16,8 10,6 - - 18 10 ZZW 1015,0 10 60 0,0
17.07.2018 13:00:00 17,6 9,3 - - 16 9 ZZW 1014,9 10 24 0,0
17.07.2018 12:00:00 15,7 9,2 - - 5 3 - 1014,8 10 0 0,0
17.07.2018 11:00:00 15,3 9,6 - - 13 7 W 1014,8 10 6 0,0
17.07.2018 10:00:00 15,1 9,5 18,7 17,4 15 8 WNW 1014,5 10 0 0,0
17.07.2018 09:00:00 14,7 10,1 - - 9 5 W 1014,3 10 0 0,0
17.07.2018 08:00:00 14,2 10,8 - - 11 6 WNW 1014,1 10 0 0,0
17.07.2018 07:00:00 14,1 11,0 - - 11 6 W 1013,8 10 0 0,0
17.07.2018 06:00:00 13,9 10,8 - - 8 4 W 1013,5 10 0 0,0
17.07.2018 05:00:00 14,2 10,5 - - 9 5 WNW 1013,2 10 0 0,0
17.07.2018 04:00:00 13,8 11,0 - - 8 4 W 1013,2 10 0 0,0
17.07.2018 03:00:00 13,4 11,0 - - 8 4 W 1013,3 10 0 0,0
17.07.2018 02:00:00 14,2 11,1 - - 4 2 WNW 1013,5 10 0 0,0
17.07.2018 01:00:00 14,0 12,4 - - 5 3 - 1013,8 10 - 0,0
17.07.2018 00:00:00 13,7 12,4 - - 4 2 - 1013,8 10 0 0,0
16.07.2018 23:00:00 13,5 12,4 - - 5 3 - 1014,0 10 0 0,0
16.07.2018 22:00:00 13,6 12,4 - - 8 4 ZZW 1014,1 20 0 0,0
16.07.2018 21:00:00 13,8 12,4 - - 8 4 ZZW 1013,8 10 0 0,0
16.07.2018 20:00:00 14,6 11,8 - - 13 7 Z 1013,6 10 12 0,0
16.07.2018 19:00:00 14,7 11,9 - - 16 9 Z 1013,4 10 36 0,0
16.07.2018 18:00:00 15,8 12,1 - - 21 11 Z 1013,1 10 42 0,0
16.07.2018 17:00:00 16,4 13,0 - - 15 8 ZZW 1013,0 10 0 0,0
16.07.2018 16:00:00 17,3 8,5 - - 16 9 ZW 1013,1 10 0 0,0
16.07.2018 15:00:00 18,2 8,1 - - 13 7 ZZW 1013,3 10 0 0,0
16.07.2018 14:00:00 18,1 9,8 - - 16 9 ZW 1013,4 10 0 0,0
16.07.2018 13:00:00 18,8 8,1 - - 16 9 ZW 1013,3 10 12 0,0

tt = temperatuur
td = dauwpunt
tt -20cm = temperatuur -20cm
tt -100cm = temperatuur -100cm
ff = windsnelheid
dd = windrichting
ppp = luchtdruk
vv = zicht
sd = Zonneschijnduur
rr = neerslag

Weerstations in de omgeving